Portada
METAR-TAF:

METAR-TAF

Aeroports :

Poteau, Oklahoma, Estats Units d'Amèrica

latitud: 35-01-18N, longitud: 094-37-17W, altitud: 138 m

Observació

L'informe es va fer fa 26 minuts, a les 08:35 UTC
Vent 4 kt del Sud
Temperatura 25°C
Humitat 83%
Pressió 1014 hPa
Visibilitat: 16.1 km
Núvols disperses a una alçada de 5000 ft
Núvols disperses a una alçada de 6000 ft

METAR: KRKR 060835Z AUTO 19004KT 10SM SCT050 SCT060 25/22 A2995 RMK AO2

Hora: 04:01 (09:01 UTC)


TAF: manca

Observacions i pronòstics meteorològics de més de 4000 aeroports (METAR i TAF).

Les estacions disponibles són els punts grocs i vermells al mapa.

Posi el ratolí al punt desitjat per veure el nom de l'estació.

Feu clic per veure les observacions i els pronòstics meteorològics.

Per canviar el mapa: feu clic els botons verds amb una creu de color negre per apropar; al botó verd amb un guió per allunyar la imatge; o en les fletxes verdes per a mapes adjacents.


METAR-TAF: